Torna al catalogo

COSMOS 1924

AttivoNavigazioneLEO
NORAD 18937·PAYLOAD·🇷🇺 Russia

Lanciato Mar 11, 1988 da Plesetsk Cosmodrome

Loading…

Prossimi Passaggi (prossime 24 ore)

TLE

AggiornatoSource: Space-Track

Epoca: Sep 14, 2026, 13:20 UTC

1 18937U 88016A   26257.55559187 -.00000010  00000-0  39196-4 0  9992
2 18937  74.0092  11.1576 0035061 265.2508 107.0414 12.44623359749798

Traccia COSMOS 1924 in tempo reale con AllMySat

Download on the App Store